Weather WX

World > North America > United States > North Carolina

Five Points, North Carolina Regional Weather

Lat: 35.60N, Lon: 78.76W
Wx Zone: NCZ041
Warning FLW WEATHER ALERT - EXCESSIVE HEAT WARNING (More Info. Click Here) Warning
Feedback

Five Points, NC Regional Weather

Expires:201907200800;;338580
ASUS42 KRAH 200710
RWRRAH
NORTH CAROLINA WEATHER ROUNDUP
NATIONAL WEATHER SERVICE RALEIGH NC
300 AM EDT SAT JUL 20 2019

NOTE: "FAIR" INDICATES FEW OR NO CLOUDS BELOW 12,000 FEET WITH NO
SIGNIFICANT WEATHER AND/OR OBSTRUCTIONS TO VISIBILITY.


NCZ021-022-025-041-071-084-088-200800-
CENTRAL NORTH CAROLINA
  
CITY           SKY/WX    TMP DP  RH WIND       PRES   REMARKS
CHARLOTTE      FAIR      73  70  90 N7        30.02F                  
GREENSBORO     FAIR      78  72  81 W13       30.01F                  
WINSTON-SALEM  FAIR      79  71  76 W8        30.03F                  
RALEIGH-DURHAM FAIR      79  72  79 W6        29.99F                  
FORT BRAGG     FAIR      77  73  88 SW3       29.97F                  
FAYETTEVILLE   FAIR      76  71  85 SW8       29.98F                  
BURLINGTON     FAIR      81  72  74 SW8       29.99F                  
ROXBORO        FAIR      77  72  83 SW5       30.01F                  
HENDERSON      FAIR      76  70  80 SW7       29.98F                  
LOUISBURG      FAIR      79  72  78 W7        30.01S                  
LAURINBURG     FAIR      75  73  93 SW7       30.00F                  
$$
 

SKY/WX - Weather  TMP - Temperature  DP - Dew Point  RH - Relative Humidity
WIND - Wind Direction/Speed PRES - Barometric Pressure VSB - Visibility
WCI - Wind Chill Index E13G22 Wind - East Wind 13 mph/Gusts of 22 mph